Home > Weather > Geesthacht > Past weeks

Flag for Germany Past Weather in Geesthacht, Schleswig-Holstein, Germany — Yesterday and Last 2 Weeks

Now
63 °F

Light rain. Partly sunny.


Feels Like: 63 °F
Forecast: 53 / 66 °F
Wind: 6 mph from North

Location: Hamburg-Fuhlsbuettel

Current Time: Jul 31, 2016 at 11:51:44 AM

Latest Report: Jul 31, 2016 at 11:20 AM


Visibility: N/A

Pressure: 29.89 "Hg

Humidity: 83%

Dew Point: 57 °F

Location of GeesthachtLocation

Past Weather in Geesthacht — Graph

°F

Geesthacht Temperature Yesterday

Maximum temperature yesterday: 70 °F (at 1:20 PM)
Minimum temperature yesterday: 57 °F (at 11:20 PM)
Average temperature yesterday: 65 °F

High & Low Weather Summary for the Past Weeks

 TemperatureHumidityPressure
High84 °F (Jul 21, 3:50 PM)100% (Jul 16, 6:50 PM)30.18 "Hg (Jul 16, 6:50 PM)
Low57 °F (Jul 30, 11:20 PM)42% (Jul 23, 2:20 PM)29.80 "Hg (Jul 29, 3:50 PM)
Average68 °F77%30.02 "Hg
* Reported Jul 16 10:20 AM — Jul 31 10:20 AM, Geesthacht, Weather by CustomWeather, © 2016

Note: Actual official high and low records may vary slightly from our data, if they occured in-between our weather recording intervals... More about our weather records

Advertising

Geesthacht Weather History for the Previous 24 Hours

Scroll right to see more
 ConditionsComfort  
Time TempWeatherWind HumidityBarometerVisibility
10:20 AM
Sun, Jul 31
63 °FLight rain. Scattered clouds.5 mph77%29.89 "HgN/A
9:50 AM63 °FScattered clouds.3 mph77%29.89 "HgN/A
9:20 AM63 °FScattered clouds.2 mph73%29.89 "HgN/A
8:50 AM63 °FBroken clouds.5 mph77%29.89 "HgN/A
8:20 AM63 °FSunny.5 mph77%29.89 "Hg10 mi
7:50 AM61 °FPassing clouds.3 mph83%29.89 "HgN/A
7:20 AM59 °FScattered clouds.2 mph88%29.89 "HgN/A
6:50 AM59 °FPartly sunny.3 mph88%29.89 "HgN/A
6:20 AM59 °FClear.2 mph88%29.89 "Hg10 mi
5:50 AM57 °FClear.1 mph94%29.89 "Hg10 mi
5:20 AM57 °FPassing clouds.1 mph94%29.89 "HgN/A
4:50 AM57 °FPassing clouds.1 mph94%29.89 "HgN/A
4:20 AM57 °FLight rain. Passing clouds.2 mph94%29.89 "HgN/A
3:50 AM57 °FLight rain. Passing clouds.2 mph94%29.89 "HgN/A
3:20 AM57 °FPassing clouds.2 mph94%29.89 "HgN/A
2:50 AM57 °FClear.2 mph94%29.89 "Hg10 mi
2:20 AM59 °FPassing clouds.2 mph88%29.89 "HgN/A
1:50 AM57 °FLight rain. Passing clouds.1 mph94%29.89 "HgN/A
1:20 AM59 °FPassing clouds.3 mph88%29.92 "HgN/A
12:50 AM57 °FClear.3 mph94%29.92 "Hg10 mi
12:20 AM59 °FClear.3 mph88%29.92 "Hg10 mi
11:50 PM
Sat, Jul 30
57 °FClear.2 mph94%29.92 "Hg10 mi
11:20 PM57 °FClear.5 mph94%29.89 "Hg10 mi
10:50 PM59 °FClear.3 mph88%29.89 "Hg10 mi
10:20 PM61 °FClear.3 mph83%29.89 "Hg10 mi
9:50 PM61 °FSunny.3 mph83%29.92 "Hg10 mi
9:20 PM63 °FSunny.6 mph77%29.89 "Hg10 mi
8:50 PM64 °FPartly sunny.8 mph73%29.89 "HgN/A
8:20 PM66 °FScattered clouds.9 mph64%29.89 "HgN/A
7:50 PM66 °FScattered clouds.10 mph64%29.89 "HgN/A
7:20 PM68 °FScattered clouds.10 mph60%29.89 "HgN/A
6:50 PM70 °FScattered clouds.10 mph57%29.89 "HgN/A
6:20 PM70 °FScattered clouds.13 mph57%29.89 "HgN/A
5:50 PM70 °FScattered clouds.14 mph60%29.86 "HgN/A
5:20 PM70 °FScattered clouds.14 mph60%29.86 "HgN/A
4:50 PM70 °FScattered clouds.15 mph64%29.86 "HgN/A
4:20 PM70 °FScattered clouds.14 mph64%29.86 "HgN/A
3:50 PM70 °FScattered clouds.14 mph64%29.86 "HgN/A
3:20 PM68 °FSprinkles. Broken clouds.13 mph78%29.83 "HgN/A
2:50 PM66 °FSprinkles. Broken clouds.12 mph78%29.86 "HgN/A
2:20 PM68 °FScattered showers. Broken clouds.12 mph73%29.83 "HgN/A
1:50 PM68 °FScattered showers. Broken clouds.10 mph78%29.83 "HgN/A
1:20 PM70 °FScattered showers. Broken clouds.13 mph73%29.83 "HgN/A
12:50 PM68 °FPartly sunny.12 mph78%29.83 "HgN/A
12:20 PM66 °FScattered showers. Broken clouds.10 mph83%29.83 "HgN/A
11:50 AM66 °FScattered showers. Broken clouds.15 mph83%29.83 "HgN/A
11:20 AM66 °FSprinkles. Broken clouds.14 mph83%29.83 "HgN/A
Weather by CustomWeather, © 2016

See weather overviewHow to use our weather pages